| time (UTC) | temp C | wind direction | speed KPH | gust KPH | rain 1hr cm | rain 24hr cm | rain mn cm | humidity % | barometer mb |
| 20260506044822 | 8 | 287 | 1.6 | 4.8 | 0.13 | 0.13 | 0.13 | 99 | 1008.0 |
| 20260506044320 | 8 | 282 | 1.6 | 3.2 | 0.13 | 0.13 | 0.13 | 99 | 1007.8 |
| 20260506043816 | 8 | 82 | 3.2 | 4.8 | 0.13 | 0.10 | 0.10 | 99 | 1007.6 |
| 20260506043314 | 8 | 67 | 3.2 | 4.8 | 0.18 | 0.10 | 0.10 | 99 | 1007.4 |
| 20260506042812 | 8 | 291 | 0.0 | 3.2 | 0.23 | 0.10 | 0.10 | 99 | 1007.4 |
| 20260506042311 | 8 | 37 | 3.2 | 8.0 | 0.18 | 0.08 | 0.08 | 99 | 1007.3 |
| 20260506041809 | 8 | 42 | 3.2 | 6.4 | 0.13 | 0.05 | 0.05 | 99 | 1007.5 |
| 20260506041305 | 8 | 78 | 1.6 | 3.2 | 0.18 | 0.05 | 0.05 | 99 | 1007.4 |
| 20260506040803 | 8 | 51 | 3.2 | 8.0 | 0.18 | 0.03 | 0.03 | 99 | 1007.5 |
| 20260506040300 | 8 | 69 | 4.8 | 6.4 | 0.30 | 0.00 | 0.00 | 99 | 1007.5 |
| 20260506035756 | 8 | 72 | 1.6 | 6.4 | 0.30 | 2.77 | 2.77 | 99 | 1007.7 |
| 20260506035253 | 8 | 66 | 0.0 | 1.6 | 0.30 | 2.77 | 2.77 | 99 | 1007.8 |
| 20260506034750 | 8 | 146 | 0.0 | 1.6 | 0.30 | 2.72 | 2.72 | 99 | 1007.8 |
| 20260506034248 | 8 | 49 | 0.0 | 3.2 | 0.36 | 2.72 | 2.72 | 99 | 1007.7 |
| 20260506033744 | 9 | 135 | 0.0 | 1.6 | 0.30 | 2.67 | 2.67 | 99 | 1008.0 |
| 20260506033242 | 9 | 168 | 1.6 | 3.2 | 0.18 | 2.64 | 2.64 | 99 | 1007.9 |
| 20260506032738 | 9 | 274 | 1.6 | 4.8 | 0.13 | 2.62 | 2.62 | 99 | 1007.7 |
| 20260506032235 | 9 | 246 | 0.0 | 0.0 | 0.18 | 2.62 | 2.62 | 99 | 1007.7 |
| 20260506031732 | 9 | 269 | 0.0 | 3.2 | 0.13 | 2.59 | 2.59 | 99 | 1007.7 |
| 20260506031229 | 9 | 202 | 1.6 | 1.6 | 0.13 | 2.59 | 2.59 | 99 | 1007.6 |
| 20260506030728 | 9 | 304 | 0.0 | 0.0 | 0.18 | 2.59 | 2.59 | 99 | 1007.6 |
| 20260506030225 | 9 | 111 | 0.0 | 1.6 | 0.13 | 2.57 | 2.57 | 99 | 1007.6 |
| 20260506025722 | 9 | 15 | 3.2 | 4.8 | 0.13 | 2.54 | 2.54 | 99 | 1007.4 |
| 20260506025218 | 9 | 352 | 0.0 | 3.2 | 0.13 | 2.54 | 2.54 | 99 | 1007.4 |
| 20260506024715 | 9 | 266 | 1.6 | 1.6 | 0.05 | 2.54 | 2.54 | 99 | 1007.5 |
| 20260506024211 | 9 | 237 | 0.0 | 0.0 | 0.05 | 2.51 | 2.51 | 99 | 1007.5 |
| 20260506023708 | 9 | 88 | 0.0 | 3.2 | 0.05 | 2.51 | 2.51 | 99 | 1007.4 |
| 20260506023205 | 9 | 89 | 0.0 | 3.2 | 0.05 | 2.51 | 2.51 | 99 | 1007.4 |
| 20260506022702 | 9 | 74 | 3.2 | 3.2 | 0.13 | 2.51 | 2.51 | 99 | 1007.4 |
| 20260506022200 | 9 | 110 | 0.0 | 3.2 | 0.13 | 2.49 | 2.49 | 99 | 1007.7 |
| 20260506021657 | 9 | 82 | 3.2 | 4.8 | 0.18 | 2.49 | 2.49 | 99 | 1007.4 |
| 20260506021154 | 9 | 101 | 3.2 | 3.2 | 0.18 | 2.46 | 2.46 | 99 | 1007.6 |
| 20260506020651 | 9 | 110 | 6.4 | 6.4 | 0.18 | 2.44 | 2.44 | 99 | 1007.7 |
| 20260506020149 | 9 | 93 | 6.4 | 11.3 | 0.23 | 2.44 | 2.44 | 99 | 1007.5 |
| 20260506015646 | 9 | 86 | 4.8 | 8.0 | 0.23 | 2.41 | 2.41 | 99 | 1007.6 |
| 20260506015143 | 9 | 89 | 8.0 | 9.7 | 0.23 | 2.39 | 2.39 | 99 | 1007.5 |
| 20260506014635 | 9 | 113 | 4.8 | 6.4 | 0.23 | 2.36 | 2.36 | 99 | 1007.7 |
| 20260506014130 | 8 | 63 | 4.8 | 6.4 | 0.23 | 2.36 | 2.36 | 99 | 1007.7 |
| 20260506013629 | 9 | 84 | 3.2 | 6.4 | 0.18 | 2.34 | 2.34 | 99 | 1007.9 |
| 20260506013126 | 9 | 83 | 3.2 | 4.8 | 0.23 | 2.31 | 2.31 | 99 | 1007.8 |
| 20260506012622 | 9 | 83 | 3.2 | 4.8 | 0.36 | 2.31 | 2.31 | 99 | 1008.0 |
| 20260506012118 | 9 | 202 | 0.0 | 1.6 | 0.30 | 2.26 | 2.26 | 99 | 1008.0 |
| 20260506011616 | 9 | 84 | 3.2 | 4.8 | 0.23 | 2.24 | 2.24 | 99 | 1007.8 |
| 20260506011112 | 8 | 84 | 3.2 | 3.2 | 0.30 | 2.21 | 2.21 | 99 | 1008.1 |
| 20260506010612 | 8 | 87 | 1.6 | 3.2 | 0.48 | 2.18 | 2.18 | 99 | 1008.2 |
| 20260506010108 | 9 | 106 | 3.2 | 3.2 | 0.71 | 2.16 | 2.16 | 99 | 1008.3 |
| 20260506005605 | 9 | 120 | 3.2 | 4.8 | 0.66 | 2.08 | 2.08 | 99 | 1008.3 |
| 20260506005101 | 8 | 246 | 0.0 | 3.2 | 0.43 | 2.03 | 2.03 | 99 | 1008.0 |
| 20260506004558 | 8 | 54 | 0.0 | 1.6 | 0.43 | 1.98 | 1.98 | 99 | 1008.0 |
| 20260506004055 | 9 | 83 | 3.2 | 3.2 | 0.36 | 1.96 | 1.96 | 99 | 1007.9 |
| 20260506003551 | 9 | 105 | 1.6 | 3.2 | 0.18 | 1.91 | 1.91 | 99 | 1007.9 |
| 20260506003048 | 9 | 286 | 1.6 | 1.6 | 0.23 | 1.88 | 1.88 | 99 | 1007.7 |
| 20260506002543 | 9 | 47 | 3.2 | 4.8 | 0.30 | 1.88 | 1.88 | 99 | 1007.7 |
| 20260506002039 | 9 | 78 | 3.2 | 9.7 | 0.18 | 1.83 | 1.83 | 99 | 1007.9 |
| 20260506001536 | 9 | 283 | 0.0 | 1.6 | 0.23 | 1.83 | 1.83 | 99 | 1008.2 |
| 20260506001033 | 9 | 69 | 3.2 | 4.8 | 0.53 | 1.80 | 1.80 | 99 | 1007.8 |
| 20260506000531 | 9 | 89 | 3.2 | 4.8 | 0.71 | 1.78 | 1.78 | 99 | 1008.2 |
| 20260506000028 | 9 | 122 | 0.0 | 4.8 | 0.61 | 1.73 | 1.73 | 99 | 1008.3 |
| 20260505235526 | 9 | 253 | 0.0 | 3.2 | 0.48 | 1.65 | 1.65 | 99 | 1008.1 |
| 20260505235022 | 9 | 162 | 3.2 | 3.2 | 0.53 | 1.60 | 1.60 | 99 | 1007.8 |
| 20260505234519 | 9 | 317 | 1.6 | 3.2 | 0.43 | 1.55 | 1.55 | 99 | 1007.9 |
| 20260505234016 | 9 | 165 | 1.6 | 3.2 | 0.36 | 1.50 | 1.50 | 99 | 1008.0 |
| 20260505233514 | 9 | 134 | 3.2 | 4.8 | 0.30 | 1.47 | 1.47 | 99 | 1007.6 |
| 20260505233011 | 9 | 33 | 0.0 | 3.2 | 0.30 | 1.45 | 1.45 | 99 | 1007.7 |
| 20260505232509 | 8 | 179 | 1.6 | 6.4 | 0.18 | 1.42 | 1.42 | 99 | 1007.7 |
| 20260505232006 | 9 | 158 | 4.8 | 6.4 | 0.23 | 1.40 | 1.40 | 99 | 1007.7 |
| 20260505231503 | 9 | 146 | 4.8 | 6.4 | 0.48 | 1.40 | 1.40 | 99 | 1007.6 |
| 20260505231002 | 9 | 206 | 0.0 | 6.4 | 0.53 | 1.35 | 1.35 | 99 | 1007.8 |
| 20260505230458 | 9 | 154 | 3.2 | 3.2 | 0.43 | 1.30 | 1.30 | 99 | 1007.8 |
| 20260505225955 | 9 | 137 | 0.0 | 1.6 | 0.43 | 1.27 | 1.27 | 99 | 1007.6 |
| 20260505225452 | 9 | 127 | 3.2 | 3.2 | 0.66 | 1.22 | 1.22 | 99 | 1007.8 |
| 20260505224948 | 10 | 257 | 0.0 | 4.8 | 0.61 | 1.17 | 1.17 | 99 | 1008.0 |
| 20260505224445 | 10 | 211 | 3.2 | 4.8 | 0.66 | 1.12 | 1.12 | 99 | 1007.9 |
| 20260505223942 | 9 | 179 | 4.8 | 4.8 | 0.66 | 1.07 | 1.07 | 99 | 1007.6 |
| 20260505223439 | 10 | 135 | 0.0 | 4.8 | 0.48 | 0.99 | 0.99 | 99 | 1007.9 |
| 20260505222935 | 10 | 183 | 3.2 | 4.8 | 0.36 | 0.97 | 0.97 | 99 | 1007.7 |
| 20260505222432 | 10 | 137 | 0.0 | 4.8 | 0.23 | 0.91 | 0.91 | 99 | 1007.8 |
| 20260505221927 | 10 | 57 | 0.0 | 3.2 | 0.23 | 0.89 | 0.89 | 99 | 1007.7 |
| 20260505221425 | 10 | 174 | 3.2 | 6.4 | 0.43 | 0.89 | 0.89 | 99 | 1007.5 |
| 20260505220922 | 10 | 51 | 4.8 | 4.8 | 0.36 | 0.84 | 0.84 | 99 | 1007.5 |
| 20260505220419 | 10 | 349 | 1.6 | 4.8 | 0.43 | 0.81 | 0.81 | 99 | 1008.0 |
| 20260505215916 | 10 | 129 | 0.0 | 6.4 | 0.66 | 0.76 | 0.76 | 99 | 1007.8 |
| 20260505215415 | 10 | 258 | 4.8 | 6.4 | 0.48 | 0.71 | 0.71 | 99 | 1007.8 |
| 20260505214912 | 10 | 237 | 1.6 | 8.0 | 0.43 | 0.66 | 0.66 | 99 | 1007.9 |
| 20260505214410 | 10 | 248 | 3.2 | 8.0 | 0.66 | 0.64 | 0.64 | 99 | 1007.8 |
| 20260505213907 | 10 | 256 | 0.0 | 8.0 | 0.48 | 0.58 | 0.58 | 99 | 1007.7 |
| 20260505213404 | 10 | 147 | 3.2 | 9.7 | 0.30 | 0.53 | 0.53 | 99 | 1007.8 |
| 20260505212900 | 10 | 287 | 4.8 | 6.4 | 0.36 | 0.51 | 0.51 | 99 | 1007.6 |
| 20260505212357 | 10 | 273 | 3.2 | 4.8 | 0.48 | 0.48 | 0.48 | 99 | 1007.5 |
| 20260505211854 | 11 | 121 | 3.2 | 14.5 | 0.48 | 0.43 | 0.43 | 99 | 1007.6 |
| 20260505211351 | 11 | 216 | 3.2 | 9.7 | 0.36 | 0.41 | 0.41 | 99 | 1007.7 |
| 20260505210848 | 11 | 200 | 6.4 | 8.0 | 0.43 | 0.36 | 0.36 | 98 | 1007.4 |
| 20260505210345 | 11 | 214 | 1.6 | 14.5 | 0.43 | 0.33 | 0.33 | 98 | 1007.6 |
| 20260505205841 | 11 | 178 | 6.4 | 9.7 | 0.43 | 0.28 | 0.28 | 98 | 1007.6 |
| 20260505205340 | 12 | 184 | 3.2 | 6.4 | 0.61 | 0.25 | 0.25 | 97 | 1007.4 |
| 20260505204836 | 11 | 272 | 4.8 | 11.3 | 0.61 | 0.20 | 0.20 | 97 | 1007.1 |
| 20260505204334 | 12 | 278 | 3.2 | 11.3 | 0.43 | 0.15 | 0.15 | 96 | 1007.4 |
| 20260505203831 | 12 | 137 | 4.8 | 9.7 | 0.18 | 0.10 | 0.10 | 95 | 1007.3 |
| 20260505203327 | 12 | 164 | 4.8 | 6.4 | 0.23 | 0.08 | 0.08 | 94 | 1007.0 |
| 20260505202824 | 12 | 193 | 8.0 | 12.9 | 0.18 | 0.05 | 0.05 | 93 | 1007.0 |
| 20260505202320 | 12 | 281 | 8.0 | 11.3 | 0.18 | 0.05 | 0.05 | 91 | 1007.1 |
| 20260505201817 | 12 | 174 | 3.2 | 14.5 | 0.18 | 0.03 | 0.03 | 90 | 1007.0 |
| 20260505201314 | 13 | 136 | 4.8 | 20.9 | 0.05 | 0.00 | 0.00 | 89 | 1006.9 |
| 20260505200813 | 13 | 133 | 0.0 | 12.9 | 0.00 | 0.00 | 0.00 | 88 | 1006.8 |
| 20260505200309 | 14 | 295 | 1.6 | 9.7 | 0.00 | 0.00 | 0.00 | 85 | 1006.7 |
| 20260505195804 | 14 | 190 | 0.0 | 8.0 | 0.00 | 0.00 | 0.00 | 84 | 1006.5 |
| 20260505195305 | 13 | 217 | 3.2 | 20.9 | 0.00 | 0.00 | 0.00 | 83 | 1006.5 |
| 20260505194759 | 13 | 84 | 4.8 | 9.7 | 0.00 | 0.00 | 0.00 | 83 | 1006.7 |
| 20260505194256 | 14 | 200 | 3.2 | 8.0 | 0.00 | 0.00 | 0.00 | 84 | 1006.8 |
| 20260505193756 | 14 | 190 | 8.0 | 9.7 | 0.00 | 0.00 | 0.00 | 84 | 1006.7 |
| 20260505193255 | 14 | 170 | 6.4 | 9.7 | 0.00 | 0.00 | 0.00 | 83 | 1006.8 |
| 20260505192753 | 14 | 269 | 11.3 | 19.3 | 0.00 | 0.00 | 0.00 | 83 | 1006.7 |
| 20260505192250 | 14 | 274 | 9.7 | 11.3 | 0.00 | 0.00 | 0.00 | 83 | 1006.9 |
| 20260505191748 | 15 | 154 | 4.8 | 16.1 | 0.00 | 0.00 | 0.00 | 83 | 1006.7 |
| 20260505191247 | 15 | 164 | 4.8 | 17.7 | 0.00 | 0.00 | 0.00 | 83 | 1006.8 |
| 20260505190742 | 15 | 216 | 19.3 | 20.9 | 0.00 | 0.00 | 0.00 | 82 | 1007.0 |
| 20260505190237 | 15 | 196 | 4.8 | 9.7 | 0.00 | 0.00 | 0.00 | 83 | 1006.8 |
| 20260505185734 | 14 | 195 | 4.8 | 9.7 | 0.00 | 0.00 | 0.00 | 83 | 1006.8 |
| 20260505185231 | 14 | 314 | 6.4 | 9.7 | 0.00 | 0.00 | 0.00 | 84 | 1006.9 |
| 20260505184726 | 14 | 103 | 6.4 | 11.3 | 0.00 | 0.00 | 0.00 | 83 | 1006.8 |
| 20260505184224 | 15 | 269 | 4.8 | 9.7 | 0.00 | 0.00 | 0.00 | 83 | 1007.0 |
| 20260505183721 | 14 | 201 | 9.7 | 17.7 | 0.00 | 0.00 | 0.00 | 84 | 1007.0 |
| 20260505183218 | 14 | 269 | 9.7 | 16.1 | 0.00 | 0.00 | 0.00 | 83 | 1006.9 |
| 20260505182714 | 15 | 146 | 4.8 | 19.3 | 0.00 | 0.00 | 0.00 | 82 | 1007.0 |
| 20260505182212 | 15 | 265 | 14.5 | 14.5 | 0.00 | 0.00 | 0.00 | 81 | 1006.8 |
| 20260505181708 | 15 | 157 | 6.4 | 11.3 | 0.00 | 0.00 | 0.00 | 80 | 1006.9 |
| 20260505181206 | 15 | 212 | 3.2 | 17.7 | 0.00 | 0.00 | 0.00 | 79 | 1006.8 |
| 20260505180702 | 15 | 144 | 4.8 | 11.3 | 0.00 | 0.00 | 0.00 | 78 | 1006.8 |
| 20260505180159 | 16 | 184 | 9.7 | 14.5 | 0.00 | 0.00 | 0.00 | 77 | 1006.5 |
| 20260505175655 | 16 | 203 | 8.0 | 14.5 | 0.00 | 0.00 | 0.00 | 77 | 1006.5 |
| 20260505175151 | 16 | 238 | 6.4 | 16.1 | 0.00 | 0.00 | 0.00 | 74 | 1006.3 |
| 20260505174648 | 17 | 220 | 11.3 | 19.3 | 0.00 | 0.00 | 0.00 | 72 | 1006.2 |
| 20260505174144 | 17 | 252 | 8.0 | 22.5 | 0.00 | 0.00 | 0.00 | 71 | 1006.1 |
| 20260505173641 | 17 | 274 | 12.9 | 22.5 | 0.00 | 0.00 | 0.00 | 70 | 1006.1 |
| 20260505173138 | 18 | 260 | 9.7 | 24.1 | 0.00 | 0.00 | 0.00 | 70 | 1005.8 |
| 20260505172635 | 17 | 178 | 4.8 | 9.7 | 0.00 | 0.00 | 0.00 | 70 | 1006.2 |
| 20260505172132 | 17 | 135 | 8.0 | 24.1 | 0.00 | 0.00 | 0.00 | 73 | 1005.8 |
| 20260505171632 | 16 | 148 | 3.2 | 12.9 | 0.00 | 0.00 | 0.00 | 75 | 1005.9 |
| 20260505171129 | 15 | 179 | 4.8 | 12.9 | 0.00 | 0.00 | 0.00 | 75 | 1006.0 |
| 20260505170626 | 15 | 118 | 8.0 | 9.7 | 0.00 | 0.00 | 0.00 | 76 | 1006.1 |
| 20260505170122 | 16 | 136 | 3.2 | 9.7 | 0.00 | 0.00 | 0.00 | 74 | 1006.1 |
| 20260505165617 | 16 | 267 | 4.8 | 6.4 | 0.00 | 0.00 | 0.00 | 73 | 1005.8 |
| 20260505165114 | 16 | 316 | 11.3 | 16.1 | 0.00 | 0.00 | 0.00 | 73 | 1005.6 |
| 20260505164609 | 17 | 215 | 11.3 | 11.3 | 0.00 | 0.00 | 0.00 | 70 | 1005.6 |
| 20260505164107 | 17 | 312 | 3.2 | 9.7 | 0.00 | 0.00 | 0.00 | 70 | 1005.7 |
| 20260505163606 | 18 | 184 | 3.2 | 14.5 | 0.00 | 0.00 | 0.00 | 69 | 1005.6 |
| 20260505163102 | 19 | 255 | 3.2 | 8.0 | 0.00 | 0.00 | 0.00 | 67 | 1005.3 |
| 20260505162600 | 19 | 323 | 3.2 | 12.9 | 0.00 | 0.00 | 0.00 | 65 | 1005.0 |
| 20260505162058 | 20 | 220 | 20.9 | 20.9 | 0.00 | 0.00 | 0.00 | 63 | 1004.9 |
| 20260505161554 | 20 | 253 | 8.0 | 12.9 | 0.00 | 0.00 | 0.00 | 65 | 1004.8 |
| 20260505161052 | 20 | 201 | 11.3 | 22.5 | 0.00 | 0.00 | 0.00 | 65 | 1004.7 |
| 20260505160550 | 20 | 299 | 4.8 | 6.4 | 0.00 | 0.00 | 0.00 | 65 | 1004.4 |
| 20260505153026 | 18 | 188 | 4.8 | 9.7 | 0.00 | 0.00 | 0.00 | 70 | 1005.5 |
| 20260505152523 | 18 | 203 | 4.8 | 12.9 | 0.00 | 0.00 | 0.00 | 69 | 1005.3 |
| 20260505152019 | 18 | 244 | 8.0 | 17.7 | 0.00 | 0.00 | 0.00 | 68 | 1005.4 |
| 20260505151514 | 18 | 276 | 9.7 | 19.3 | 0.00 | 0.00 | 0.00 | 68 | 1005.1 |
| 20260505151012 | 18 | 230 | 11.3 | 19.3 | 0.00 | 0.00 | 0.00 | 69 | 1005.2 |
| 20260505150508 | 18 | 212 | 6.4 | 8.0 | 0.00 | 0.00 | 0.00 | 70 | 1005.3 |
| 20260505140433 | 18 | 150 | 8.0 | 20.9 | 0.00 | 0.00 | 0.00 | 68 | 1004.0 |
| 20260505124846 | 18 | 166 | 3.2 | 16.1 | 0.00 | 0.00 | 0.00 | 67 | 1003.6 |
| 20260505124343 | 18 | 179 | 12.9 | 17.7 | 0.00 | 0.00 | 0.00 | 66 | 1003.5 |
| 20260505123839 | 18 | 184 | 12.9 | 17.7 | 0.00 | 0.00 | 0.00 | 67 | 1003.6 |
| 20260505123336 | 18 | 131 | 6.4 | 20.9 | 0.00 | 0.00 | 0.00 | 67 | 1003.6 |
| 20260505122832 | 18 | 246 | 4.8 | 14.5 | 0.00 | 0.00 | 0.00 | 66 | 1003.8 |
| 20260505122330 | 18 | 276 | 11.3 | 20.9 | 0.00 | 0.00 | 0.00 | 68 | 1003.2 |
| 20260505121826 | 18 | 259 | 8.0 | 12.9 | 0.00 | 0.00 | 0.00 | 68 | 1003.2 |
| 20260505121324 | 18 | 173 | 16.1 | 22.5 | 0.00 | 0.00 | 0.00 | 68 | 1003.3 |
| 20260505120819 | 18 | 114 | 3.2 | 17.7 | 0.00 | 0.00 | 0.00 | 69 | 1003.5 |
| 20260505120316 | 18 | 209 | 16.1 | 25.7 | 0.00 | 0.00 | 0.00 | 67 | 1003.3 |
| 20260505115814 | 18 | 199 | 8.0 | 30.6 | 0.00 | 0.00 | 0.00 | 67 | 1003.3 |
| 20260505115312 | 18 | 226 | 17.7 | 20.9 | 0.00 | 0.00 | 0.00 | 68 | 1003.1 |
| 20260505114809 | 18 | 227 | 4.8 | 29.0 | 0.00 | 0.00 | 0.00 | 68 | 1003.2 |
| 20260505114306 | 18 | 187 | 6.4 | 14.5 | 0.00 | 0.00 | 0.00 | 68 | 1002.9 |
| 20260505113803 | 18 | 213 | 6.4 | 24.1 | 0.00 | 0.00 | 0.00 | 68 | 1003.0 |
| 20260505113259 | 18 | 240 | 6.4 | 19.3 | 0.00 | 0.00 | 0.00 | 68 | 1002.9 |
| 20260505112754 | 17 | 230 | 12.9 | 19.3 | 0.00 | 0.00 | 0.00 | 68 | 1002.8 |
| 20260505112252 | 18 | 181 | 4.8 | 24.1 | 0.00 | 0.00 | 0.00 | 68 | 1002.8 |
| 20260505111747 | 17 | 189 | 11.3 | 17.7 | 0.00 | 0.00 | 0.00 | 68 | 1002.7 |
| 20260505111243 | 17 | 228 | 19.3 | 27.4 | 0.00 | 0.00 | 0.00 | 68 | 1002.8 |
| 20260505110739 | 17 | 205 | 1.6 | 20.9 | 0.00 | 0.00 | 0.00 | 69 | 1002.5 |
| 20260505110237 | 17 | 155 | 20.9 | 20.9 | 0.00 | 0.00 | 0.00 | 69 | 1002.5 |
| 20260505102212 | 17 | 158 | 8.0 | 20.9 | 0.00 | 0.00 | 0.00 | 69 | 1002.0 |
| 20260505101711 | 17 | 126 | 3.2 | 17.7 | 0.00 | 0.00 | 0.00 | 68 | 1002.0 |
| 20260505101206 | 17 | 206 | 11.3 | 32.2 | 0.00 | 0.00 | 0.00 | 68 | 1001.9 |
| 20260505100703 | 17 | 203 | 8.0 | 25.7 | 0.00 | 0.00 | 0.00 | 68 | 1001.7 |
| 20260505100200 | 18 | 223 | 12.9 | 25.7 | 0.00 | 0.00 | 0.00 | 67 | 1001.6 |
| 20260505095655 | 18 | 176 | 9.7 | 16.1 | 0.00 | 0.00 | 0.00 | 67 | 1001.8 |
| 20260505095154 | 17 | 205 | 16.1 | 19.3 | 0.00 | 0.00 | 0.00 | 68 | 1001.6 |
| 20260505094649 | 17 | 232 | 20.9 | 33.8 | 0.00 | 0.00 | 0.00 | 67 | 1001.6 |
| 20260505094145 | 17 | 168 | 12.9 | 19.3 | 0.00 | 0.00 | 0.00 | 67 | 1001.9 |
| 20260505093642 | 17 | 217 | 6.4 | 11.3 | 0.00 | 0.00 | 0.00 | 69 | 1001.8 |
| 20260505093140 | 17 | 71 | 1.6 | 24.1 | 0.00 | 0.00 | 0.00 | 68 | 1001.7 |
| 20260505092636 | 17 | 193 | 6.4 | 20.9 | 0.00 | 0.00 | 0.00 | 69 | 1001.7 |
| 20260505092135 | 17 | 128 | 8.0 | 19.3 | 0.00 | 0.00 | 0.00 | 69 | 1001.7 |
| 20260505091632 | 17 | 153 | 6.4 | 11.3 | 0.00 | 0.00 | 0.00 | 70 | 1001.8 |
| 20260505091130 | 17 | 207 | 6.4 | 17.7 | 0.00 | 0.00 | 0.00 | 70 | 1001.6 |
| 20260505090627 | 17 | 204 | 6.4 | 14.5 | 0.00 | 0.00 | 0.00 | 70 | 1001.9 |
| 20260505090125 | 17 | 189 | 19.3 | 30.6 | 0.00 | 0.00 | 0.00 | 68 | 1001.9 |
| 20260505085622 | 17 | 246 | 6.4 | 19.3 | 0.00 | 0.00 | 0.00 | 69 | 1001.5 |
| 20260505085121 | 17 | 109 | 4.8 | 14.5 | 0.00 | 0.00 | 0.00 | 70 | 1001.7 |
| 20260505084618 | 17 | 179 | 11.3 | 19.3 | 0.00 | 0.00 | 0.00 | 69 | 1002.0 |
| 20260505084116 | 17 | 216 | 3.2 | 20.9 | 0.00 | 0.00 | 0.00 | 69 | 1001.7 |
| 20260505083613 | 17 | 160 | 6.4 | 24.1 | 0.00 | 0.00 | 0.00 | 70 | 1001.3 |
| 20260505083110 | 17 | 208 | 8.0 | 19.3 | 0.00 | 0.00 | 0.00 | 69 | 1001.5 |
| 20260505082605 | 17 | 175 | 9.7 | 20.9 | 0.00 | 0.00 | 0.00 | 69 | 1001.4 |
| 20260505082103 | 17 | 353 | 6.4 | 19.3 | 0.00 | 0.00 | 0.00 | 69 | 1001.2 |
| 20260505081558 | 17 | 165 | 3.2 | 19.3 | 0.00 | 0.00 | 0.00 | 70 | 1001.5 |
| 20260505081056 | 17 | 201 | 11.3 | 17.7 | 0.00 | 0.00 | 0.00 | 68 | 1001.4 |
| 20260505080552 | 17 | 138 | 12.9 | 16.1 | 0.00 | 0.00 | 0.00 | 69 | 1001.3 |
| 20260505080049 | 18 | 101 | 9.7 | 20.9 | 0.00 | 0.00 | 0.00 | 68 | 1001.5 |
| 20260505075545 | 18 | 138 | 9.7 | 25.7 | 0.00 | 0.00 | 0.00 | 68 | 1001.4 |
| 20260505075042 | 18 | 159 | 11.3 | 20.9 | 0.00 | 0.00 | 0.00 | 69 | 1001.7 |
| 20260505074539 | 18 | 182 | 3.2 | 16.1 | 0.00 | 0.00 | 0.00 | 68 | 1001.4 |
| 20260505074036 | 18 | 190 | 11.3 | 19.3 | 0.00 | 0.00 | 0.00 | 68 | 1001.4 |
| 20260505073533 | 18 | 196 | 4.8 | 22.5 | 0.00 | 0.00 | 0.00 | 69 | 1001.6 |
| 20260505073032 | 18 | 185 | 12.9 | 19.3 | 0.00 | 0.00 | 0.00 | 68 | 1001.4 |
| 20260505072527 | 17 | 166 | 8.0 | 9.7 | 0.00 | 0.00 | 0.00 | 69 | 1001.5 |
| 20260505072023 | 18 | 183 | 11.3 | 27.4 | 0.00 | 0.00 | 0.00 | 67 | 1001.7 |
| 20260505071519 | 18 | 188 | 6.4 | 17.7 | 0.00 | 0.00 | 0.00 | 68 | 1001.6 |
| 20260505071018 | 18 | 181 | 4.8 | 17.7 | 0.00 | 0.00 | 0.00 | 68 | 1001.6 |
| 20260505070515 | 18 | 165 | 8.0 | 27.4 | 0.00 | 0.00 | 0.00 | 66 | 1001.6 |
| 20260505070010 | 18 | 136 | 9.7 | 19.3 | 0.00 | 0.00 | 0.00 | 66 | 1001.6 |
| 20260505065506 | 18 | 280 | 3.2 | 12.9 | 0.00 | 0.00 | 0.00 | 66 | 1001.8 |
| 20260505065003 | 18 | 190 | 8.0 | 11.3 | 0.00 | 0.00 | 0.00 | 67 | 1001.9 |
| 20260505064500 | 18 | 144 | 3.2 | 9.7 | 0.00 | 0.00 | 0.00 | 67 | 1001.7 |
| 20260505063959 | 18 | 167 | 9.7 | 24.1 | 0.00 | 0.00 | 0.00 | 67 | 1002.0 |
| 20260505063455 | 18 | 254 | 3.2 | 16.1 | 0.00 | 0.00 | 0.00 | 67 | 1001.9 |
| 20260505062951 | 18 | 240 | 3.2 | 17.7 | 0.00 | 0.00 | 0.00 | 69 | 1001.9 |
| 20260505062448 | 18 | 146 | 3.2 | 22.5 | 0.00 | 0.00 | 0.00 | 67 | 1002.1 |
| 20260505061945 | 18 | 187 | 11.3 | 14.5 | 0.00 | 0.00 | 0.00 | 67 | 1002.3 |
| 20260505061443 | 18 | 266 | 20.9 | 20.9 | 0.00 | 0.00 | 0.00 | 66 | 1002.4 |
| 20260505060940 | 18 | 198 | 6.4 | 19.3 | 0.00 | 0.00 | 0.00 | 66 | 1002.2 |
| 20260505060437 | 18 | 197 | 8.0 | 24.1 | 0.00 | 0.00 | 0.00 | 65 | 1002.5 |
| 20260505055934 | 18 | 200 | 19.3 | 20.9 | 0.00 | 0.00 | 0.00 | 66 | 1002.5 |
| 20260505055430 | 18 | 139 | 8.0 | 20.9 | 0.00 | 0.00 | 0.00 | 66 | 1002.2 |
| 20260505054927 | 18 | 189 | 9.7 | 20.9 | 0.00 | 0.00 | 0.00 | 67 | 1002.2 |
| 20260505054424 | 17 | 166 | 6.4 | 16.1 | 0.00 | 0.00 | 0.00 | 68 | 1002.2 |
| 20260505053922 | 17 | 155 | 9.7 | 14.5 | 0.00 | 0.00 | 0.00 | 69 | 1002.3 |
| 20260505053419 | 17 | 115 | 8.0 | 20.9 | 0.00 | 0.00 | 0.00 | 68 | 1002.3 |
| 20260505052916 | 17 | 156 | 6.4 | 16.1 | 0.00 | 0.00 | 0.00 | 69 | 1002.4 |
| 20260505052412 | 18 | 199 | 12.9 | 19.3 | 0.00 | 0.00 | 0.00 | 68 | 1002.3 |
| 20260505051910 | 17 | 96 | 6.4 | 17.7 | 0.00 | 0.00 | 0.00 | 71 | 1002.6 |
| 20260505051407 | 17 | 256 | 4.8 | 9.7 | 0.00 | 0.00 | 0.00 | 70 | 1002.6 |
| 20260505050905 | 17 | 170 | 3.2 | 19.3 | 0.00 | 0.00 | 0.00 | 71 | 1002.8 |
| 20260505050403 | 16 | 244 | 19.3 | 24.1 | 0.00 | 0.00 | 0.00 | 73 | 1002.9 |